User: anonymous   Login
Location: Unspecified
(0.0000°N, 0.0000°E)
Time: 22:48:29
(UTC+00:00)
Language:

SO-67 - Orbit

View from above orbital plane
View from above orbital plane
View from above satellite
View from above satellite

Ground track
Ground track

The orbit data is extracted from the following two-line orbital elements,

1 35870U 09049F   14298.47566476  .00016363  00000-0  48016-3 0  6363
2 35870 097.1535 315.7466 0002442 053.0115 075.9446 15.35229661284025
Epoch (UTC): 25 October 2014 11:24:57
Eccentricity: 0.0002442
inclination: 97.1535°
perigee height: 458 km
apogee height: 462 km
right ascension of ascending node: 315.7466°
argument of perigee: 53.0115°
revolutions per day: 15.35229661
mean anomaly at epoch: 75.9446°
orbit number at epoch: 28402

The dashed part of the orbit path shows where the satellite is in the earth's shadow,  

DLR